Regional Weather Roundup
Issued by NWS

Home | Current Version | Previous Version | Text Only | Print | Product List | Glossary Off
Versions: 1 2 3 4 5 6 7 8 9 10 11 12 13 14 15 16 17 18 19 20 21 22 23 24 25 26 27

000
ASUS45 KCYS 191510
RWRWY

WYOMING REGIONAL WEATHER ROUNDUP
NATIONAL WEATHER SERVICE CHEYENNE WY
900 AM MDT THU APR 19 2018

NOTE:  "FAIR" INDICATES FEW OR NO CLOUDS BELOW 12,000 FEET
WITH NO SIGNIFICANT WEATHER AND/OR OBSTRUCTIONS TO VISIBILITY.

WYZ001-191600-
YELLOWSTONE NATIONAL PARK

CITY           SKY/WX    TMP DP  RH WIND       PRES   REMARKS
LK YELLOWSTONE   N/A     32  13  45 VRB3      30.11S
W YELLOWSTONE  NOT AVBL

$$
WYZ002>013-054>058-071-098>099-191600-
NORTHERN WYOMING

CITY           SKY/WX    TMP DP  RH WIND       PRES   REMARKS
JACKSON        FAIR      36  20  52 N10       30.06F WCI  28
CODY           FAIR      40  24  53 SW3       30.14S
GREYBULL       FAIR      40  32  73 NW3       30.13S
WORLAND        FAIR      41  32  70 SW6       30.11S
SHERIDAN       FAIR      50  24  36 SE20G28   30.14F
BUFFALO        FAIR      43  25  49 SE13      30.19F
GILLETTE       FAIR      45  27  49 SE24      30.21F
HULETT         FAIR      45  28  53 N5        30.28F
NEWCASTLE      FAIR      45  27  49 SE22G29   30.30S

$$
WYZ014>020-022>026-101>103-191600-
CENTRAL WYOMING

CITY           SKY/WX    TMP DP  RH WIND       PRES   REMARKS
BIG PINEY      PTSUNNY   37  12  35 CALM      30.07F
PINEDALE       CLOUDY    36  18  48 W10       30.08F WCI  28
DUBOIS         CLOUDY    32  18  55 E7        30.13S WCI  26
LANDER         FAIR      38  21  50 NW8       30.11S WCI  32
RIVERTON       FAIR      34  24  67 CALM      30.12S
CASPER         FAIR      37  25  61 E5        30.14F WCI  33
DOUGLAS        FAIR      41  26  55 SE24G31   30.19F

$$
WYZ021-027>030-104>119-191600-
SOUTHERN WYOMING

CITY           SKY/WX    TMP DP  RH WIND       PRES   REMARKS
EVANSTON       FAIR      37  12  35 E16       29.98F WCI  28
KEMMERER       FAIR      36  10  35 N13G25    30.03R WCI  27
FORT BRIDGER   FAIR      35  10  34 NE5       30.04F WCI  31
ROCK SPRINGS   FAIR      34  15  46 NE9       30.05S WCI  27
DIXON          FAIR      46  19  34 E5        30.08F
RAWLINS        FAIR      36  17  46 E10       30.12F WCI  28
SARATOGA       FAIR      37  18  44 CALM      30.10F
LARAMIE        FAIR      36  13  38 SE32G39   30.16F WCI  23
CHEYENNE       FAIR      39  17  41 S23G29    30.25F WCI  28
TORRINGTON     FAIR      40  32  73 SE12      30.28F WCI  33
PINE BLUFFS    FAIR      45  21  39 MISG      30.29F

$$




USA.gov is the U.S. government's official web portal to all federal, state and local government web resources and services.